[[{"header":{"parameterUnit":"m.s-1","parameterCategory":1,"la1":30.2991,"la2":30.254,"lo1":-89.0895,"lo2":-89.0444,"dy":0.0017,"dx":0.0017,"nx":28,"ny":28,"refTime":"2023-08-09T21:00:00:Z","depth":0,"parameterNumber":2,"parameterNumberName":"U-component_of_WINDS"},"data":[0,0,0,0,0,0,0,0,0,0,0,0,0,0,0,0,0,0,0,0,0,0,0,0,0,0,0,0,0,0,0,0,0,0,0,0,0,0,0,0,0,0,0,0,0,0,0,0,0,0,0,0,0,0,0,0,0,0,2.6272,2.6272,0,2.6294,2.6294,2.6294,2.631,2.631,2.631,2.631,2.6334,2.6334,2.6335,0,0,0,0,0,0,0,0,0,0,0,0,0,2.6246,2.6246,2.6272,2.6273,2.6273,2.6294,2.6294,2.6294,2.631,2.631,2.631,2.631,2.6334,2.6334,2.6335,0,0,0,0,0,0,0,0,0,0,0,0,0,2.6262,2.6247,2.6272,2.6283,2.6284,2.6294,2.6294,2.6294,2.631,2.631,2.631,2.631,2.6334,2.6334,2.6335,2.6336,0,0,2.6337,2.6338,0,0,0,0,0,0,0,0,2.6261,2.6262,2.6281,2.6282,2.6284,2.6299,2.6294,2.6308,2.631,2.63,2.631,2.631,2.6322,2.6324,2.6328,2.6337,2.6338,2.6337,2.6338,2.6338,2.6338,0,0,0,0,0,0,0,2.626,2.6262,2.6281,2.6281,2.6283,2.6287,2.629,2.6296,2.631,2.6301,2.6302,2.6304,2.6323,2.6327,2.6328,2.6339,2.6337,2.6338,2.6339,2.6339,2.635,2.635,0,0,0,0,0,0,2.6257,2.6261,2.628,2.6281,2.6272,2.6288,2.629,2.6294,2.631,2.6312,2.6304,2.6305,2.6326,2.6327,2.6329,2.6331,2.6338,2.6339,2.6339,2.635,2.635,2.635,0,0,0,0,0,0,2.6256,2.6258,2.6279,2.6271,2.6274,2.6288,2.6292,2.6294,2.6298,2.6312,2.6315,2.6306,2.6326,2.6328,2.6334,2.6332,2.6339,2.634,2.6351,2.635,2.635,2.6335,0,0,0,0,0,0,2.6255,2.6258,2.6258,2.6271,2.6275,2.6283,2.6292,2.6295,2.6299,2.6301,2.6314,2.6317,2.6326,2.6333,2.6335,2.6334,2.6341,2.6351,2.635,2.635,2.6336,2.6335,2.6334,0,0,0,0,0,2.6254,2.6253,2.6258,2.626,2.6275,2.6283,2.6285,2.6295,2.6299,2.63,2.6309,2.6316,2.6332,2.6333,2.6336,2.6335,2.6351,2.635,2.635,2.6337,2.6335,2.6334,0,0,0,0,0,0,2.624,2.6255,2.626,2.6264,2.6272,2.6286,2.6286,2.6293,2.6301,2.6302,2.6315,2.6318,2.6322,2.6329,2.633,2.6337,2.6343,2.6343,2.6332,2.633,2.6329,2.6327,2.6341,0,0,0,0,0,2.6237,2.6242,2.6255,2.6257,2.6261,2.6273,2.6277,2.6284,2.6293,2.6297,2.6306,2.6315,2.6322,2.6327,2.6334,2.6338,2.6341,2.6338,2.6337,2.6336,2.6335,2.6338,2.6336,2.6349,2.6349,2.6349,0,0,2.6231,2.624,2.6242,2.6254,2.6261,2.6266,2.6276,2.628,2.6284,2.6298,2.6303,2.6311,2.6322,2.6327,2.6329,2.6333,2.6333,2.6335,2.6334,2.6334,2.6337,2.6336,2.6335,2.6348,2.6349,2.6349,0,0,2.6223,2.623,2.6232,2.6239,2.625,2.6258,2.6259,2.6271,2.6277,2.6283,2.6293,2.6298,2.631,2.6318,2.6323,2.6318,2.6325,2.632,2.6313,2.6315,2.6314,2.6313,2.6311,2.631,2.632,2.632,2.632,0,2.6214,2.6222,2.6233,2.6237,2.6242,2.6254,2.6256,2.6263,2.6275,2.6279,2.6282,2.6298,2.6306,2.6312,2.6311,2.6315,2.6316,2.6318,2.6313,2.6313,2.6312,2.631,2.631,2.6319,2.6319,2.6319,2.632,0,2.6211,2.6216,2.6216,2.6227,2.6233,2.6236,2.6248,2.6252,2.6259,2.6267,2.6273,2.6284,2.6293,2.6296,2.6303,2.6303,2.6305,2.6311,2.6317,2.631,2.6308,2.6308,2.6318,2.6319,2.6319,2.6319,0,0,2.6193,2.6211,2.6211,2.6216,2.6229,2.6233,2.6237,2.6246,2.6249,2.6258,2.6262,2.6272,2.6278,2.6284,2.6292,2.6294,2.6289,2.63,2.63,2.6297,2.629,2.6285,2.6284,2.6294,2.6294,2.6294,2.6289,0,2.6186,2.6194,2.6204,2.6208,2.6213,2.6225,2.6228,2.6237,2.6245,2.625,2.626,2.6266,2.6273,2.6277,2.6279,2.6289,2.6288,2.629,2.6298,2.6298,2.6294,2.6283,2.6277,2.6272,2.6288,2.6288,2.6288,0,2.6179,2.6187,2.6191,2.6204,2.6206,2.6209,2.6218,2.6223,2.6234,2.6239,2.6246,2.6255,2.626,2.6267,2.6274,2.6276,2.628,2.6285,2.6285,2.6286,2.6292,2.6283,2.627,2.6269,2.6287,2.6287,2.6287,0,2.6165,2.6176,2.618,2.6185,2.62,2.6202,2.6208,2.6218,2.6223,2.6232,2.6235,2.6244,2.6249,2.6256,2.6267,2.6271,2.6274,2.6281,2.6279,2.6278,2.6278,2.6278,2.6265,2.6282,2.6282,2.6282,2.6282,0,2.6156,2.6158,2.6174,2.6177,2.618,2.6192,2.6195,2.6202,2.6211,2.6216,2.6227,2.6231,2.6246,2.6252,2.6262,2.6267,2.6269,2.6274,2.6276,2.6272,2.6271,2.6275,2.6275,2.6282,2.6282,2.6282,2.6282,0,2.614,2.6151,2.6156,2.617,2.6174,2.6175,2.6187,2.619,2.6199,2.6205,2.6207,2.6221,2.6228,2.624,2.6252,2.6258,2.6261,2.6266,2.6257,2.6259,2.6256,2.6255,2.6244,2.6243,2.6261,2.6261,2.6261,0,2.6133,2.6135,2.6149,2.6153,2.6159,2.6164,2.6169,2.6182,2.6186,2.6199,2.62,2.6209,2.6216,2.6228,2.6239,2.6248,2.6252,2.6248,2.6254,2.625,2.6252,2.6251,2.6251,2.6246,2.6246,2.6246,2.6245,0,2.6119,2.6125,2.6131,2.6139,2.6145,2.6152,2.616,2.6163,2.6177,2.6182,2.619,2.6195,2.6207,2.6215,2.6226,2.6233,2.6242,2.6244,2.6244,2.6239,2.6234,2.6236,2.6253,2.6244,2.6244,2.6244,2.6244,2.6244,2.6107,2.6109,2.612,2.6126,2.6134,2.6141,2.6144,2.6154,2.616,2.617,2.6178,2.6185,2.6196,2.6211,2.6218,2.6224,2.6227,2.6227,2.6227,2.6227,2.6225,2.6234,2.6226,2.6226,2.6226,2.6226,2.6226,0,2.6093,2.6101,2.6107,2.6117,2.6123,2.6131,2.614,2.6144,2.615,2.6159,2.6166,2.6175,2.6183,2.6196,2.6205,2.6208,2.6212,2.621,2.6209,2.6211,2.6221,2.622,2.6206,2.6206,2.6206,2.6206,2.6206,2.6206,2.6087,2.6091,2.6097,2.6105,2.6113,2.6119,2.6124,2.6131,2.6138,2.6148,2.6154,2.6162,2.6173,2.6183,2.6191,2.6195,2.6197,2.6194,2.6198,2.6208,2.621,2.6212,2.6211,2.6194,2.6194,2.6187,2.6187,2.6187]},{"header":{"parameterUnit":"m.s-1","parameterCategory":1,"la1":30.2991,"la2":30.254,"lo1":-89.0895,"lo2":-89.0444,"dy":0.0017,"dx":0.0017,"nx":28,"ny":28,"refTime":"2023-08-09T21:00:00:Z","depth":0,"parameterNumber":3,"parameterNumberName":"V-component_of_WINDS"},"data":[0,0,0,0,0,0,0,0,0,0,0,0,0,0,0,0,0,0,0,0,0,0,0,0,0,0,0,0,0,0,0,0,0,0,0,0,0,0,0,0,0,0,0,0,0,0,0,0,0,0,0,0,0,0,0,0,0,0,3.4539,3.4539,0,3.4552,3.4552,3.4552,3.4573,3.4574,3.4574,3.4575,3.4587,3.4587,3.4587,0,0,0,0,0,0,0,0,0,0,0,0,0,3.4529,3.4529,3.4539,3.4539,3.4539,3.4552,3.4552,3.4552,3.4573,3.4574,3.4574,3.4575,3.4587,3.4587,3.4587,0,0,0,0,0,0,0,0,0,0,0,0,0,3.4537,3.4529,3.4539,3.4551,3.4552,3.4552,3.4552,3.4552,3.4573,3.4574,3.4574,3.4575,3.4587,3.4587,3.4587,3.4575,0,0,3.4586,3.4586,0,0,0,0,0,0,0,0,3.4537,3.4537,3.4549,3.455,3.4552,3.4562,3.4553,3.456,3.4573,3.4565,3.4575,3.4575,3.4578,3.4578,3.458,3.4575,3.4576,3.4586,3.4586,3.4586,3.4586,0,0,0,0,0,0,0,3.4536,3.4537,3.4544,3.4549,3.4551,3.4555,3.4557,3.4555,3.4568,3.4566,3.4568,3.4569,3.4579,3.458,3.458,3.4576,3.4586,3.4586,3.4586,3.4586,3.4561,3.456,0,0,0,0,0,0,3.4534,3.4536,3.4544,3.4544,3.4545,3.4555,3.4557,3.4558,3.4568,3.457,3.4568,3.457,3.4579,3.458,3.4581,3.4566,3.4586,3.4586,3.4586,3.4562,3.4561,3.456,0,0,0,0,0,0,3.4534,3.4534,3.4543,3.4541,3.4542,3.4555,3.4555,3.4558,3.4559,3.457,3.4572,3.4567,3.458,3.4581,3.4576,3.4567,3.4586,3.4586,3.4562,3.4561,3.4561,3.4538,0,0,0,0,0,0,3.4533,3.4534,3.453,3.4541,3.4542,3.4538,3.4555,3.4558,3.4559,3.4561,3.457,3.4571,3.458,3.4576,3.4576,3.4567,3.4586,3.4563,3.4562,3.4561,3.454,3.4537,3.4534,0,0,0,0,0,3.4533,3.4523,3.453,3.4531,3.4538,3.4538,3.4539,3.455,3.4558,3.4554,3.4561,3.4571,3.4568,3.4575,3.4575,3.4567,3.4564,3.4562,3.4561,3.4541,3.4537,3.4534,0,0,0,0,0,0,3.4511,3.4525,3.4532,3.4526,3.4531,3.4542,3.4537,3.4546,3.4548,3.4549,3.4563,3.4564,3.4557,3.4562,3.4569,3.4555,3.4568,3.4566,3.4552,3.4549,3.4546,3.4545,3.4586,0,0,0,0,0,3.4506,3.4506,3.4517,3.4511,3.4513,3.4524,3.4525,3.4533,3.4538,3.454,3.4547,3.4551,3.455,3.455,3.4551,3.4541,3.4542,3.4535,3.4532,3.453,3.4528,3.4522,3.4518,3.4556,3.4556,3.4556,0,0,3.4495,3.4502,3.4501,3.4506,3.4511,3.4509,3.4526,3.4524,3.4522,3.4539,3.4535,3.454,3.4545,3.4538,3.4534,3.4541,3.4518,3.4528,3.4526,3.4525,3.452,3.4516,3.4513,3.4555,3.4555,3.4555,0,0,3.4473,3.4479,3.4474,3.4478,3.4485,3.4492,3.4491,3.45,3.4504,3.45,3.4513,3.4511,3.4511,3.4514,3.4515,3.4494,3.4503,3.4494,3.4478,3.4472,3.4469,3.4467,3.4458,3.4455,3.4492,3.4492,3.4492,0,3.4458,3.4457,3.4469,3.4466,3.4468,3.4484,3.4478,3.4481,3.4487,3.4488,3.4495,3.4495,3.4499,3.4492,3.4487,3.4488,3.4486,3.4493,3.4469,3.4466,3.4464,3.4456,3.4453,3.4491,3.4491,3.4491,3.4492,0,3.4437,3.4436,3.443,3.4436,3.4437,3.4433,3.4444,3.4444,3.4452,3.4458,3.4453,3.446,3.4461,3.446,3.4468,3.4454,3.4457,3.4467,3.4479,3.4459,3.4451,3.4448,3.4489,3.449,3.449,3.4491,0,0,3.4402,3.4415,3.4412,3.4415,3.4423,3.4422,3.4418,3.442,3.4419,3.4423,3.4418,3.4418,3.4426,3.4428,3.4436,3.4431,3.4412,3.4441,3.4441,3.4434,3.4395,3.4387,3.4383,3.4418,3.4418,3.4417,3.4394,0,3.4381,3.4375,3.4386,3.4377,3.4375,3.439,3.4386,3.439,3.4396,3.4395,3.4402,3.4401,3.4413,3.4413,3.4409,3.4415,3.4404,3.4417,3.4414,3.4413,3.4411,3.4379,3.4371,3.4349,3.4391,3.4391,3.439,0,3.4355,3.4358,3.4349,3.4357,3.4357,3.4353,3.4355,3.4355,3.4359,3.4364,3.4366,3.4375,3.4371,3.4384,3.4377,3.4385,3.4385,3.4387,3.4387,3.4386,3.44,3.4376,3.4342,3.4338,3.4386,3.4386,3.4387,0,3.4329,3.433,3.4325,3.4326,3.4336,3.4333,3.4337,3.4342,3.4343,3.4344,3.4344,3.4346,3.4346,3.4346,3.4355,3.4364,3.4347,3.4361,3.435,3.4349,3.4344,3.4344,3.4308,3.4346,3.4346,3.4346,3.4346,0,3.4304,3.4297,3.4313,3.4309,3.4302,3.4315,3.4307,3.4312,3.4317,3.4313,3.4327,3.4323,3.4337,3.4334,3.4342,3.4334,3.4335,3.4337,3.4339,3.4335,3.4335,3.4334,3.4335,3.4345,3.4345,3.4346,3.4346,0,3.4273,3.4283,3.4277,3.4287,3.4289,3.4283,3.4291,3.4288,3.4295,3.4291,3.429,3.4301,3.4299,3.4309,3.4309,3.4313,3.4302,3.4307,3.43,3.4301,3.4289,3.4289,3.425,3.4245,3.4287,3.4286,3.4286,0,3.4255,3.425,3.426,3.4259,3.4262,3.426,3.4261,3.4273,3.4272,3.4277,3.4273,3.4272,3.4272,3.4268,3.4275,3.4275,3.4279,3.4265,3.4279,3.4275,3.4277,3.4277,3.4276,3.4262,3.4261,3.4261,3.4261,0,3.4223,3.4228,3.4228,3.423,3.423,3.4231,3.4234,3.4232,3.4245,3.4244,3.4242,3.4242,3.4242,3.4241,3.4242,3.4245,3.4254,3.4256,3.4253,3.4249,3.4245,3.4245,3.4291,3.4257,3.4257,3.4258,3.4258,3.4258,3.4197,3.4193,3.4199,3.4198,3.4201,3.4203,3.42,3.4207,3.4206,3.4207,3.4214,3.421,3.4214,3.4217,3.4219,3.4216,3.4222,3.4219,3.4217,3.4216,3.4213,3.4246,3.4216,3.4217,3.4217,3.4217,3.4217,0,3.4164,3.4168,3.4168,3.4171,3.417,3.418,3.4183,3.4182,3.4179,3.4182,3.4182,3.4179,3.4178,3.4185,3.4184,3.418,3.4184,3.4179,3.4179,3.4179,3.4208,3.421,3.4176,3.4176,3.4176,3.4176,3.4176,3.4176,3.4147,3.414,3.4146,3.4141,3.4145,3.4142,3.4143,3.4144,3.4147,3.4144,3.4143,3.4147,3.4152,3.4151,3.415,3.4152,3.4151,3.4144,3.4147,3.4174,3.4178,3.4181,3.4183,3.4144,3.4144,3.4119,3.4118,3.4118]}]]